[Date Prev][Date Next][Thread Prev][Thread Next] - [Date Index][Thread Index][Author Index]

2 Line ISS Keps 1-17



ISS 
1 25544U 98067A   05016.99237821  .00005832  00000-0  52645-4 0  6040
2 25544  51.6475 313.9040 0009613 357.1916  95.6845 15.69815991351911
----
Via the sarex mailing list at AMSAT.ORG courtesy of AMSAT-NA.
To unsubscribe, send "unsubscribe sarex" to Majordomo@amsat.org



AMSAT Top AMSAT Home